Location: Brede
(50.9167°N, 0.6000°E)
Time: 17:11:00
(UTC+00:00)

Cosmos 1908 Rocket - Pass Details

Date: 08 August 2020
Orbit: 606 x 632 km, 82.5° (Epoch: 22 September)

Event Time Altitude Azimuth Distance (km) Brightness Sun altitude
Exits shadow 00:38:26 40° 264° (W) 919 4.2 -22.6°
Maximum altitude 00:39:02 42° 286° (WNW) 883 4.3 -22.6°
Drops below altitude 10° 00:43:13 10° 359° (N) 1,986 7.2 -22.5°
Sets 00:45:33 0° 6° (N) 2,893 8.5 -22.4°
